TEIKYOSAT-4 (OORURI)

导读

TEIKYOSAT-4(OORURI)是日本于2021年11月9日08:00发射的微小卫星,由东京大学等机构主导研制。作为日本高校航天领域创新项目的成果,该卫星主要开展空间技术验证与相关科学观测实验,依托小型化平台测试新型航天器件,助力日本低成本航天技术发展,进一步推动了国内高校在微小卫星领域的技术积累与实践探索。

基本信息
目录编号:
49396
目录名称:
TEIKYOSAT-4 (OORURI)
国际标识:
2021-102B
轨道中心:
EARTH
卫星名称:
TEIKYOSAT-4 (OORURI)
卫星全名:
--
卫星状态:
在轨 (已飞行1708 天)
发射日期:
2021-11-09 UTC
国别 :
日本 (JP)
星等 :
--
轨道信息
数据来源 国际轨道数据
星历时间: 2026-07-13T23:14:57+0800
15小时前
查看轨道信息
半长轴: 6915.574km
偏心率: 0.0011608
轨道倾角: 97.367°
近地点辐角 193.955°
升交点赤经 223.091°
平近点角 166.136°
近地点: 529.409km
远地点: 545.465km
周期: 95.390分钟
每日圈数: 15.09595
详细信息
使用方式:
暂无
2D轨道图
3D轨道图
轨道高度分析图
轨道倾角分析图
轨道综合分析图
查看轨道综合分析图